owner,sensor,date,latitude,longitude,vertical_datum,direction_of_sea_water_velocity,sea_water_speed,upward_sea_water_velocity,qcFlag 
TABS,ioos:station:wmo:42046:1,2007-12-01T00:00:00Z,27.8903,-94.0367,2.0,49.94216622,6.976797259,-99999.0,'11133222,11111222,99999999' 
TABS,ioos:station:wmo:42046:1,2007-12-01T00:30:00Z,27.8903,-94.0367,2.0,42.09250023,8.50329936,-99999.0,'11133222,11111222,99999999' 
TABS,ioos:station:wmo:42046:1,2007-12-01T01:00:00Z,27.8903,-94.0367,2.0,32.4383604,5.331941485,-99999.0,'11133222,11111222,99999999' 
TABS,ioos:station:wmo:42046:1,2007-12-01T01:30:00Z,27.8903,-94.0367,2.0,66.83363422,4.677135876,-99999.0,'11133222,11111222,99999999' 
TABS,ioos:station:wmo:42046:1,2007-12-01T02:00:00Z,27.8903,-94.0367,2.0,136.6722852,1.938298223,-99999.0,'11133222,11111222,99999999' 
TABS,ioos:station:wmo:42046:1,2007-12-01T02:30:00Z,27.8903,-94.0367,2.0,298.1686863,3.516475508,-99999.0,'11133222,11111222,99999999' 
TABS,ioos:station:wmo:42046:1,2007-12-01T03:00:00Z,27.8903,-94.0367,2.0,83.31310631,1.459931505,-99999.0,'11133222,11111222,99999999' 
TABS,ioos:station:wmo:42046:1,2007-12-01T03:30:00Z,27.8903,-94.0367,2.0,61.36883854,8.806889349,-99999.0,'11133222,11111222,99999999' 
TABS,ioos:station:wmo:42046:1,2007-12-01T04:00:00Z,27.8903,-94.0367,2.0,38.53323831,2.825190259,-99999.0,'11133222,11111222,99999999' 
TABS,ioos:station:wmo:42046:1,2007-12-01T04:30:00Z,27.8903,-94.0367,2.0,167.9883392,0.961041102,-99999.0,'11133222,11111222,99999999' 
TABS,ioos:station:wmo:42046:1,2007-12-01T05:00:00Z,27.8903,-94.0367,2.0,185.3854809,2.983169455,-99999.0,'11133222,11111222,99999999' 
TABS,ioos:station:wmo:42046:1,2007-12-01T05:30:00Z,27.8903,-94.0367,2.0,175.7944424,0.681835757,-99999.0,'11133222,11111222,99999999' 
TABS,ioos:station:wmo:42046:1,2007-12-01T06:00:00Z,27.8903,-94.0367,2.0,207.936867,1.494121816,-99999.0,'11133222,11111222,99999999' 
TABS,ioos:station:wmo:42046:1,2007-12-01T06:30:00Z,27.8903,-94.0367,2.0,312.745746,0.898721314,-99999.0,'11133222,11111222,99999999' 
TABS,ioos:station:wmo:42046:1,2007-12-01T07:00:00Z,27.8903,-94.0367,2.0,177.3972334,1.101135777,-99999.0,'11133222,11111222,99999999' 
TABS,ioos:station:wmo:42046:1,2007-12-01T07:30:00Z,27.8903,-94.0367,2.0,110.8112731,2.364254639,-99999.0,'11133222,11111222,99999999' 
TABS,ioos:station:wmo:42046:1,2007-12-01T08:00:00Z,27.8903,-94.0367,2.0,79.04596297,1.57876534,-99999.0,'11133222,11111222,99999999' 
TABS,ioos:station:wmo:42046:1,2007-12-01T08:30:00Z,27.8903,-94.0367,2.0,99.83957061,3.745090119,-99999.0,'11133222,11111222,99999999' 
TABS,ioos:station:wmo:42046:1,2007-12-01T09:00:00Z,27.8903,-94.0367,2.0,68.3440616,2.926567956,-99999.0,'11133222,11111222,99999999' 
TABS,ioos:station:wmo:42046:1,2007-12-01T09:30:00Z,27.8903,-94.0367,2.0,59.30809137,3.977096931,-99999.0,'11133222,11111222,99999999' 
TABS,ioos:station:wmo:42046:1,2007-12-01T10:00:00Z,27.8903,-94.0367,2.0,32.66104681,3.705995143,-99999.0,'11133222,11111222,99999999' 
TABS,ioos:station:wmo:42046:1,2007-12-01T10:30:00Z,27.8903,-94.0367,2.0,39.94897206,4.095912597,-99999.0,'11133222,11111222,99999999' 
TABS,ioos:station:wmo:42046:1,2007-12-01T11:00:00Z,27.8903,-94.0367,2.0,30.07777441,5.766472058,-99999.0,'11133222,11111222,99999999' 
TABS,ioos:station:wmo:42046:1,2007-12-01T11:30:00Z,27.8903,-94.0367,2.0,40.77243161,18.89581171,-99999.0,'11111222,11111222,99999999' 
TABS,ioos:station:wmo:42046:1,2007-12-01T12:00:00Z,27.8903,-94.0367,2.0,48.27963361,19.15861425,-99999.0,'11111222,11111222,99999999' 
TABS,ioos:station:wmo:42046:1,2007-12-01T12:30:00Z,27.8903,-94.0367,2.0,47.86054781,20.6874358,-99999.0,'11111222,11111222,99999999' 
TABS,ioos:station:wmo:42046:1,2007-12-01T13:00:00Z,27.8903,-94.0367,2.0,52.99928173,19.25805026,-99999.0,'11111222,11111222,99999999' 
TABS,ioos:station:wmo:42046:1,2007-12-01T13:30:00Z,27.8903,-94.0367,2.0,49.92168765,16.40171028,-99999.0,'11111222,11111222,99999999' 
TABS,ioos:station:wmo:42046:1,2007-12-01T14:00:00Z,27.8903,-94.0367,2.0,47.83948714,16.70115265,-99999.0,'11111222,11111222,99999999' 
TABS,ioos:station:wmo:42046:1,2007-12-01T14:30:00Z,27.8903,-94.0367,2.0,62.65858396,18.81153104,-99999.0,'11111222,11111222,99999999' 
TABS,ioos:station:wmo:42046:1,2007-12-01T15:00:00Z,27.8903,-94.0367,2.0,58.6087893,16.31854467,-99999.0,'11111222,11111222,99999999' 
TABS,ioos:station:wmo:42046:1,2007-12-01T15:30:00Z,27.8903,-94.0367,2.0,73.0830337,18.1451922,-99999.0,'11111222,11111222,99999999' 
TABS,ioos:station:wmo:42046:1,2007-12-01T16:00:00Z,27.8903,-94.0367,2.0,79.75419796,15.62922903,-99999.0,'11111222,11111222,99999999' 
TABS,ioos:station:wmo:42046:1,2007-12-01T16:30:00Z,27.8903,-94.0367,2.0,91.18081737,16.01340064,-99999.0,'11111222,11111222,99999999' 
TABS,ioos:station:wmo:42046:1,2007-12-01T17:00:00Z,27.8903,-94.0367,2.0,69.14750141,13.34403987,-99999.0,'11111222,11111222,99999999' 
TABS,ioos:station:wmo:42046:1,2007-12-01T17:30:00Z,27.8903,-94.0367,2.0,59.68240162,14.14438758,-99999.0,'11111222,11111222,99999999' 
TABS,ioos:station:wmo:42046:1,2007-12-01T18:00:00Z,27.8903,-94.0367,2.0,71.26025588,12.48168658,-99999.0,'11111222,11111222,99999999' 
TABS,ioos:station:wmo:42046:1,2007-12-01T18:30:00Z,27.8903,-94.0367,2.0,54.53968561,12.92791166,-99999.0,'11111222,11111222,99999999' 
TABS,ioos:station:wmo:42046:1,2007-12-01T19:00:00Z,27.8903,-94.0367,2.0,62.02169492,14.32413697,-99999.0,'11111222,11111222,99999999' 
TABS,ioos:station:wmo:42046:1,2007-12-01T19:30:00Z,27.8903,-94.0367,2.0,53.1814369,11.18000447,-99999.0,'11111222,11111222,99999999' 
TABS,ioos:station:wmo:42046:1,2007-12-01T20:00:00Z,27.8903,-94.0367,2.0,44.02908557,14.60385223,-99999.0,'11111222,11111222,99999999' 
TABS,ioos:station:wmo:42046:1,2007-12-01T20:30:00Z,27.8903,-94.0367,2.0,43.08140762,18.37386459,-99999.0,'11111222,11111222,99999999' 
TABS,ioos:station:wmo:42046:1,2007-12-01T21:00:00Z,27.8903,-94.0367,2.0,39.56368478,19.70377121,-99999.0,'11111222,11111222,99999999' 
TABS,ioos:station:wmo:42046:1,2007-12-01T21:30:00Z,27.8903,-94.0367,2.0,38.44271568,20.18560378,-99999.0,'11111222,11111222,99999999' 
TABS,ioos:station:wmo:42046:1,2007-12-01T22:00:00Z,27.8903,-94.0367,2.0,41.18358827,21.99029104,-99999.0,'11111222,11111222,99999999' 
TABS,ioos:station:wmo:42046:1,2007-12-01T22:30:00Z,27.8903,-94.0367,2.0,42.63873609,19.2213423,-99999.0,'11111222,11111222,99999999' 
TABS,ioos:station:wmo:42046:1,2007-12-01T23:00:00Z,27.8903,-94.0367,2.0,39.26586686,22.15136339,-99999.0,'11111222,11111222,99999999' 
TABS,ioos:station:wmo:42046:1,2007-12-01T23:30:00Z,27.8903,-94.0367,2.0,38.73867662,21.58948124,-99999.0,'11111222,11111222,99999999' 
TABS,ioos:station:wmo:42046:1,2007-12-02T00:00:00Z,27.8903,-94.0367,2.0,26.23041112,22.19558965,-99999.0,'11111222,11111222,99999999' 
TABS,ioos:station:wmo:42046:1,2007-12-02T00:30:00Z,27.8903,-94.0367,2.0,28.25540024,20.46892767,-99999.0,'11111222,11111222,99999999' 
TABS,ioos:station:wmo:42046:1,2007-12-02T01:00:00Z,27.8903,-94.0367,2.0,21.37198359,19.31842903,-99999.0,'11111222,11111222,99999999' 
TABS,ioos:station:wmo:42046:1,2007-12-02T01:30:00Z,27.8903,-94.0367,2.0,26.86040296,19.96387988,-99999.0,'11111222,11111222,99999999' 
TABS,ioos:station:wmo:42046:1,2007-12-02T02:00:00Z,27.8903,-94.0367,2.0,28.47263035,19.88519047,-99999.0,'11111222,11111222,99999999' 
TABS,ioos:station:wmo:42046:1,2007-12-02T02:30:00Z,27.8903,-94.0367,2.0,24.82034526,18.65298368,-99999.0,'11111222,11111222,99999999' 
TABS,ioos:station:wmo:42046:1,2007-12-02T03:00:00Z,27.8903,-94.0367,2.0,30.38120911,17.53835226,-99999.0,'11111222,11111222,99999999' 
TABS,ioos:station:wmo:42046:1,2007-12-02T03:30:00Z,27.8903,-94.0367,2.0,25.56423084,16.3839342,-99999.0,'11111222,11111222,99999999' 
TABS,ioos:station:wmo:42046:1,2007-12-02T04:00:00Z,27.8903,-94.0367,2.0,20.53118768,18.76169768,-99999.0,'11111222,11111222,99999999' 
TABS,ioos:station:wmo:42046:1,2007-12-02T04:30:00Z,27.8903,-94.0367,2.0,25.40236481,14.1035492,-99999.0,'11111222,11111222,99999999' 
TABS,ioos:station:wmo:42046:1,2007-12-02T05:00:00Z,27.8903,-94.0367,2.0,26.52736813,13.54610276,-99999.0,'11111222,11111222,99999999' 
TABS,ioos:station:wmo:42046:1,2007-12-02T05:30:00Z,27.8903,-94.0367,2.0,23.31862512,11.92396327,-99999.0,'11111222,11111222,99999999' 
TABS,ioos:station:wmo:42046:1,2007-12-02T06:00:00Z,27.8903,-94.0367,2.0,22.4379927,14.0431478,-99999.0,'11111222,11111222,99999999' 
TABS,ioos:station:wmo:42046:1,2007-12-02T06:30:00Z,27.8903,-94.0367,2.0,23.28922536,13.30398437,-99999.0,'11111222,11111222,99999999' 
TABS,ioos:station:wmo:42046:1,2007-12-02T07:00:00Z,27.8903,-94.0367,2.0,35.58847337,13.14528813,-99999.0,'11111222,11111222,99999999' 
TABS,ioos:station:wmo:42046:1,2007-12-02T07:30:00Z,27.8903,-94.0367,2.0,19.31100638,9.102098659,-99999.0,'11133222,11111222,99999999' 
TABS,ioos:station:wmo:42046:1,2007-12-02T08:00:00Z,27.8903,-94.0367,2.0,25.20819605,13.21886909,-99999.0,'11111222,11111222,99999999' 
TABS,ioos:station:wmo:42046:1,2007-12-02T08:30:00Z,27.8903,-94.0367,2.0,26.86933851,10.95241526,-99999.0,'11111222,11111222,99999999' 
TABS,ioos:station:wmo:42046:1,2007-12-02T09:00:00Z,27.8903,-94.0367,2.0,41.06328158,8.342331808,-99999.0,'11133222,11111222,99999999' 
TABS,ioos:station:wmo:42046:1,2007-12-02T09:30:00Z,27.8903,-94.0367,2.0,49.15264007,10.35093233,-99999.0,'11111222,11111222,99999999' 
TABS,ioos:station:wmo:42046:1,2007-12-02T10:00:00Z,27.8903,-94.0367,2.0,33.07287647,10.81173437,-99999.0,'11111222,11111222,99999999' 
TABS,ioos:station:wmo:42046:1,2007-12-02T10:30:00Z,27.8903,-94.0367,2.0,34.79447618,14.24734712,-99999.0,'11111222,11111222,99999999' 
TABS,ioos:station:wmo:42046:1,2007-12-02T11:00:00Z,27.8903,-94.0367,2.0,37.46505913,16.17687238,-99999.0,'11111222,11111222,99999999' 
TABS,ioos:station:wmo:42046:1,2007-12-02T11:30:00Z,27.8903,-94.0367,2.0,50.36981996,16.32093747,-99999.0,'11111222,11111222,99999999' 
TABS,ioos:station:wmo:42046:1,2007-12-02T12:00:00Z,27.8903,-94.0367,2.0,57.16142553,19.97141207,-99999.0,'11111222,11111222,99999999' 
TABS,ioos:station:wmo:42046:1,2007-12-02T12:30:00Z,27.8903,-94.0367,2.0,53.04805905,22.32402293,-99999.0,'11111222,11111222,99999999' 
TABS,ioos:station:wmo:42046:1,2007-12-02T13:00:00Z,27.8903,-94.0367,2.0,57.11973776,21.58831397,-99999.0,'11111222,11111222,99999999' 
TABS,ioos:station:wmo:42046:1,2007-12-02T13:30:00Z,27.8903,-94.0367,2.0,57.06275745,24.70015789,-99999.0,'11111222,11111222,99999999' 
TABS,ioos:station:wmo:42046:1,2007-12-02T14:00:00Z,27.8903,-94.0367,2.0,56.72184546,22.37995755,-99999.0,'11111222,11111222,99999999' 
TABS,ioos:station:wmo:42046:1,2007-12-02T14:30:00Z,27.8903,-94.0367,2.0,58.74144453,23.9929698,-99999.0,'11111222,11111222,99999999' 
TABS,ioos:station:wmo:42046:1,2007-12-02T15:00:00Z,27.8903,-94.0367,2.0,54.36762813,23.89357236,-99999.0,'11111222,11111222,99999999' 
TABS,ioos:station:wmo:42046:1,2007-12-02T15:30:00Z,27.8903,-94.0367,2.0,60.6004062,25.32091033,-99999.0,'11111222,11111222,99999999' 
TABS,ioos:station:wmo:42046:1,2007-12-02T16:00:00Z,27.8903,-94.0367,2.0,60.77402598,23.69656726,-99999.0,'11111222,11111222,99999999' 
TABS,ioos:station:wmo:42046:1,2007-12-02T16:30:00Z,27.8903,-94.0367,2.0,61.11485343,25.29725084,-99999.0,'11111222,11111222,99999999' 
TABS,ioos:station:wmo:42046:1,2007-12-02T17:00:00Z,27.8903,-94.0367,2.0,63.48487659,25.69243079,-99999.0,'11111222,11111222,99999999' 
TABS,ioos:station:wmo:42046:1,2007-12-02T17:30:00Z,27.8903,-94.0367,2.0,57.31859523,29.46469243,-99999.0,'11111222,11111222,99999999' 
TABS,ioos:station:wmo:42046:1,2007-12-02T18:00:00Z,27.8903,-94.0367,2.0,60.53654961,29.80466574,-99999.0,'11111222,11111222,99999999' 
TABS,ioos:station:wmo:42046:1,2007-12-02T18:30:00Z,27.8903,-94.0367,2.0,64.97555233,27.28094573,-99999.0,'11111222,11111222,99999999' 
TABS,ioos:station:wmo:42046:1,2007-12-02T19:00:00Z,27.8903,-94.0367,2.0,62.65499589,32.85088279,-99999.0,'11111222,11111222,99999999' 
TABS,ioos:station:wmo:42046:1,2007-12-02T19:30:00Z,27.8903,-94.0367,2.0,51.99618533,35.47094727,-99999.0,'11111222,11111222,99999999' 
TABS,ioos:station:wmo:42046:1,2007-12-02T20:00:00Z,27.8903,-94.0367,2.0,51.68433143,33.29059927,-99999.0,'11111222,11111222,99999999' 
TABS,ioos:station:wmo:42046:1,2007-12-02T20:30:00Z,27.8903,-94.0367,2.0,63.63839826,21.41719403,-99999.0,'11111222,11111222,99999999' 
TABS,ioos:station:wmo:42046:1,2007-12-02T21:00:00Z,27.8903,-94.0367,2.0,70.2223806,15.24952786,-99999.0,'11111222,11111222,99999999' 
TABS,ioos:station:wmo:42046:1,2007-12-02T21:30:00Z,27.8903,-94.0367,2.0,75.86794527,7.249399975,-99999.0,'11133222,11111222,99999999' 
TABS,ioos:station:wmo:42046:1,2007-12-02T22:00:00Z,27.8903,-94.0367,2.0,80.84976462,6.036820355,-99999.0,'11133222,11111222,99999999' 
TABS,ioos:station:wmo:42046:1,2007-12-02T22:30:00Z,27.8903,-94.0367,2.0,112.7078147,7.512316554,-99999.0,'11133222,11111222,99999999' 
TABS,ioos:station:wmo:42046:1,2007-12-02T23:00:00Z,27.8903,-94.0367,2.0,125.879638,12.26783192,-99999.0,'11111222,11111222,99999999' 
TABS,ioos:station:wmo:42046:1,2007-12-02T23:30:00Z,27.8903,-94.0367,2.0,125.4124742,13.84047687,-99999.0,'11111222,11111222,99999999' 
TABS,ioos:station:wmo:42046:1,2007-12-03T00:00:00Z,27.8903,-94.0367,2.0,136.4081081,16.11275892,-99999.0,'11111222,11111222,99999999' 
TABS,ioos:station:wmo:42046:1,2007-12-03T00:30:00Z,27.8903,-94.0367,2.0,132.7484812,18.17960671,-99999.0,'11111222,11111222,99999999' 
TABS,ioos:station:wmo:42046:1,2007-12-03T01:00:00Z,27.8903,-94.0367,2.0,126.285946,15.30879486,-99999.0,'11111222,11111222,99999999' 
TABS,ioos:station:wmo:42046:1,2007-12-03T01:30:00Z,27.8903,-94.0367,2.0,134.9386815,13.2370465,-99999.0,'11111222,11111222,99999999' 
TABS,ioos:station:wmo:42046:1,2007-12-03T02:00:00Z,27.8903,-94.0367,2.0,137.4866371,12.54882066,-99999.0,'11111222,11111222,99999999' 
TABS,ioos:station:wmo:42046:1,2007-12-03T02:30:00Z,27.8903,-94.0367,2.0,141.1456082,13.80427832,-99999.0,'11111222,11111222,99999999' 
TABS,ioos:station:wmo:42046:1,2007-12-03T03:00:00Z,27.8903,-94.0367,2.0,131.4316574,12.49759177,-99999.0,'11111222,11111222,99999999' 
TABS,ioos:station:wmo:42046:1,2007-12-03T03:30:00Z,27.8903,-94.0367,2.0,125.4037683,14.93088745,-99999.0,'11111222,11111222,99999999' 
TABS,ioos:station:wmo:42046:1,2007-12-03T04:00:00Z,27.8903,-94.0367,2.0,128.3316312,19.36430221,-99999.0,'11111222,11111222,99999999' 
TABS,ioos:station:wmo:42046:1,2007-12-03T04:30:00Z,27.8903,-94.0367,2.0,126.0560932,19.01191732,-99999.0,'11111222,11111222,99999999' 
TABS,ioos:station:wmo:42046:1,2007-12-03T05:00:00Z,27.8903,-94.0367,2.0,135.1107179,21.93449338,-99999.0,'11111222,11111222,99999999' 
TABS,ioos:station:wmo:42046:1,2007-12-03T05:30:00Z,27.8903,-94.0367,2.0,136.7261966,20.89034466,-99999.0,'11111222,11111222,99999999' 
TABS,ioos:station:wmo:42046:1,2007-12-03T06:00:00Z,27.8903,-94.0367,2.0,142.2781422,20.98631935,-99999.0,'11111222,11111222,99999999' 
TABS,ioos:station:wmo:42046:1,2007-12-03T06:30:00Z,27.8903,-94.0367,2.0,146.0344344,16.7354982,-99999.0,'11111222,11111222,99999999' 
TABS,ioos:station:wmo:42046:1,2007-12-03T07:00:00Z,27.8903,-94.0367,2.0,149.859431,16.70911727,-99999.0,'11111222,11111222,99999999' 
TABS,ioos:station:wmo:42046:1,2007-12-03T07:30:00Z,27.8903,-94.0367,2.0,153.1783134,12.98721294,-99999.0,'11111222,11111222,99999999' 
TABS,ioos:station:wmo:42046:1,2007-12-03T08:00:00Z,27.8903,-94.0367,2.0,160.0082346,11.52443057,-99999.0,'11111222,11111222,99999999' 
TABS,ioos:station:wmo:42046:1,2007-12-03T08:30:00Z,27.8903,-94.0367,2.0,159.669988,8.894026085,-99999.0,'11133222,11111222,99999999' 
TABS,ioos:station:wmo:42046:1,2007-12-03T09:00:00Z,27.8903,-94.0367,2.0,155.728512,6.59273843,-99999.0,'11133222,11111222,99999999' 
TABS,ioos:station:wmo:42046:1,2007-12-03T09:30:00Z,27.8903,-94.0367,2.0,178.3087363,13.21575575,-99999.0,'11111222,11111222,99999999' 
TABS,ioos:station:wmo:42046:1,2007-12-03T10:00:00Z,27.8903,-94.0367,2.0,182.6484797,18.60988178,-99999.0,'11111222,11111222,99999999' 
TABS,ioos:station:wmo:42046:1,2007-12-03T10:30:00Z,27.8903,-94.0367,2.0,177.8219473,18.68349539,-99999.0,'11111222,11111222,99999999' 
TABS,ioos:station:wmo:42046:1,2007-12-03T11:00:00Z,27.8903,-94.0367,2.0,170.3984101,18.28615323,-99999.0,'11111222,11111222,99999999' 
TABS,ioos:station:wmo:42046:1,2007-12-03T11:30:00Z,27.8903,-94.0367,2.0,182.5978672,17.42791439,-99999.0,'11111222,11111222,99999999' 
TABS,ioos:station:wmo:42046:1,2007-12-03T12:00:00Z,27.8903,-94.0367,2.0,173.951297,21.25834424,-99999.0,'11111222,11111222,99999999' 
TABS,ioos:station:wmo:42046:1,2007-12-03T12:30:00Z,27.8903,-94.0367,2.0,176.8902055,14.9319858,-99999.0,'11111222,11111222,99999999' 
TABS,ioos:station:wmo:42046:1,2007-12-03T13:00:00Z,27.8903,-94.0367,2.0,163.8501172,16.17843008,-99999.0,'11111222,11111222,99999999' 
TABS,ioos:station:wmo:42046:1,2007-12-03T13:30:00Z,27.8903,-94.0367,2.0,150.8013149,13.91857033,-99999.0,'11111222,11111222,99999999' 
TABS,ioos:station:wmo:42046:1,2007-12-03T14:00:00Z,27.8903,-94.0367,2.0,162.6638315,11.37680535,-99999.0,'11111222,11111222,99999999' 
TABS,ioos:station:wmo:42046:1,2007-12-03T14:30:00Z,27.8903,-94.0367,2.0,160.4267095,13.37274841,-99999.0,'11111222,11111222,99999999' 
TABS,ioos:station:wmo:42046:1,2007-12-03T15:00:00Z,27.8903,-94.0367,2.0,174.3848352,10.73149104,-99999.0,'11111222,11111222,99999999' 
TABS,ioos:station:wmo:42046:1,2007-12-03T15:30:00Z,27.8903,-94.0367,2.0,162.9834719,16.09460158,-99999.0,'11111222,11111222,99999999' 
TABS,ioos:station:wmo:42046:1,2007-12-03T16:00:00Z,27.8903,-94.0367,2.0,154.0651672,10.97528587,-99999.0,'11111222,11111222,99999999' 
TABS,ioos:station:wmo:42046:1,2007-12-03T16:30:00Z,27.8903,-94.0367,2.0,167.7984328,16.51301608,-99999.0,'11111222,11111222,99999999' 
TABS,ioos:station:wmo:42046:1,2007-12-03T17:00:00Z,27.8903,-94.0367,2.0,165.9512227,11.24637719,-99999.0,'11111222,11111222,99999999' 
TABS,ioos:station:wmo:42046:1,2007-12-03T17:30:00Z,27.8903,-94.0367,2.0,159.4474198,18.48664924,-99999.0,'11111222,11111222,99999999' 
TABS,ioos:station:wmo:42046:1,2007-12-03T18:00:00Z,27.8903,-94.0367,2.0,180.2360589,14.55012371,-99999.0,'11111222,11111222,99999999' 
TABS,ioos:station:wmo:42046:1,2007-12-03T18:30:00Z,27.8903,-94.0367,2.0,165.6658559,16.80309495,-99999.0,'11111222,11111222,99999999' 
TABS,ioos:station:wmo:42046:1,2007-12-03T19:00:00Z,27.8903,-94.0367,2.0,166.7066714,13.09074864,-99999.0,'11111222,11111222,99999999' 
TABS,ioos:station:wmo:42046:1,2007-12-03T19:30:00Z,27.8903,-94.0367,2.0,154.265114,10.80134251,-99999.0,'11111222,11111222,99999999' 
TABS,ioos:station:wmo:42046:1,2007-12-03T20:00:00Z,27.8903,-94.0367,2.0,157.7213398,17.17184323,-99999.0,'11111222,11111222,99999999' 
TABS,ioos:station:wmo:42046:1,2007-12-03T20:30:00Z,27.8903,-94.0367,2.0,165.1412098,19.26416362,-99999.0,'11111222,11111222,99999999' 
TABS,ioos:station:wmo:42046:1,2007-12-03T21:00:00Z,27.8903,-94.0367,2.0,169.1127797,14.34824728,-99999.0,'11111222,11111222,99999999' 
TABS,ioos:station:wmo:42046:1,2007-12-03T21:30:00Z,27.8903,-94.0367,2.0,158.0864041,17.09514551,-99999.0,'11111222,11111222,99999999' 
TABS,ioos:station:wmo:42046:1,2007-12-03T22:00:00Z,27.8903,-94.0367,2.0,181.0228173,11.20178557,-99999.0,'11111222,11111222,99999999' 
TABS,ioos:station:wmo:42046:1,2007-12-03T22:30:00Z,27.8903,-94.0367,2.0,168.3808681,12.36334097,-99999.0,'11111222,11111222,99999999' 
TABS,ioos:station:wmo:42046:1,2007-12-03T23:00:00Z,27.8903,-94.0367,2.0,166.3673786,15.48628425,-99999.0,'11111222,11111222,99999999' 
TABS,ioos:station:wmo:42046:1,2007-12-03T23:30:00Z,27.8903,-94.0367,2.0,157.2623453,10.11617517,-99999.0,'11111222,11111222,99999999' 
TABS,ioos:station:wmo:42046:1,2007-12-04T00:00:00Z,27.8903,-94.0367,2.0,155.3188463,10.2019851,-99999.0,'11111222,11111222,99999999' 
TABS,ioos:station:wmo:42046:1,2007-12-04T00:30:00Z,27.8903,-94.0367,2.0,155.4715262,8.430830327,-99999.0,'11133222,11111222,99999999' 
TABS,ioos:station:wmo:42046:1,2007-12-04T01:00:00Z,27.8903,-94.0367,2.0,154.1830827,7.876103097,-99999.0,'11133222,11111222,99999999' 
TABS,ioos:station:wmo:42046:1,2007-12-04T01:30:00Z,27.8903,-94.0367,2.0,176.9092123,8.90294895,-99999.0,'11133222,11111222,99999999' 
TABS,ioos:station:wmo:42046:1,2007-12-04T02:00:00Z,27.8903,-94.0367,2.0,158.5173532,7.673050241,-99999.0,'11133222,11111222,99999999' 
TABS,ioos:station:wmo:42046:1,2007-12-04T02:30:00Z,27.8903,-94.0367,2.0,152.5564012,13.12726171,-99999.0,'11111222,11111222,99999999' 
TABS,ioos:station:wmo:42046:1,2007-12-04T03:00:00Z,27.8903,-94.0367,2.0,177.8545387,6.144306307,-99999.0,'11133222,11111222,99999999' 
TABS,ioos:station:wmo:42046:1,2007-12-04T03:30:00Z,27.8903,-94.0367,2.0,170.9559334,5.852760033,-99999.0,'11133222,11111222,99999999' 
TABS,ioos:station:wmo:42046:1,2007-12-04T04:00:00Z,27.8903,-94.0367,2.0,139.7522622,5.974378629,-99999.0,'11133222,11111222,99999999' 
TABS,ioos:station:wmo:42046:1,2007-12-04T04:30:00Z,27.8903,-94.0367,2.0,162.2263821,9.860638925,-99999.0,'11133222,11111222,99999999' 
TABS,ioos:station:wmo:42046:1,2007-12-04T05:00:00Z,27.8903,-94.0367,2.0,129.9389452,7.695037362,-99999.0,'11133222,11111222,99999999' 
TABS,ioos:station:wmo:42046:1,2007-12-04T05:30:00Z,27.8903,-94.0367,2.0,145.5066434,7.716637869,-99999.0,'11133222,11111222,99999999' 
TABS,ioos:station:wmo:42046:1,2007-12-04T06:00:00Z,27.8903,-94.0367,2.0,152.5861614,15.39925323,-99999.0,'11111222,11111222,99999999' 
TABS,ioos:station:wmo:42046:1,2007-12-04T06:30:00Z,27.8903,-94.0367,2.0,131.1920023,8.73083043,-99999.0,'11133222,11111222,99999999' 
TABS,ioos:station:wmo:42046:1,2007-12-04T07:00:00Z,27.8903,-94.0367,2.0,155.6328283,8.628626774,-99999.0,'11133222,11111222,99999999' 
TABS,ioos:station:wmo:42046:1,2007-12-04T07:30:00Z,27.8903,-94.0367,2.0,136.1898409,9.533855464,-99999.0,'11133222,11111222,99999999' 
TABS,ioos:station:wmo:42046:1,2007-12-04T08:00:00Z,27.8903,-94.0367,2.0,159.757557,8.121606984,-99999.0,'11133222,11111222,99999999' 
TABS,ioos:station:wmo:42046:1,2007-12-04T08:30:00Z,27.8903,-94.0367,2.0,129.1735664,9.403600374,-99999.0,'11133222,11111222,99999999' 
TABS,ioos:station:wmo:42046:1,2007-12-04T09:00:00Z,27.8903,-94.0367,2.0,154.6686698,7.268906383,-99999.0,'11133222,11111222,99999999' 
TABS,ioos:station:wmo:42046:1,2007-12-04T09:30:00Z,27.8903,-94.0367,2.0,146.8947526,10.0516914,-99999.0,'11111222,11111222,99999999' 
TABS,ioos:station:wmo:42046:1,2007-12-04T10:00:00Z,27.8903,-94.0367,2.0,137.264644,7.515344303,-99999.0,'11133222,11111222,99999999' 
TABS,ioos:station:wmo:42046:1,2007-12-04T10:30:00Z,27.8903,-94.0367,2.0,137.658372,6.250479982,-99999.0,'11133222,11111222,99999999' 
TABS,ioos:station:wmo:42046:1,2007-12-04T11:00:00Z,27.8903,-94.0367,2.0,104.5182276,6.342531041,-99999.0,'11133222,11111222,99999999' 
TABS,ioos:station:wmo:42046:1,2007-12-04T11:30:00Z,27.8903,-94.0367,2.0,122.36362,6.949481995,-99999.0,'11133222,11111222,99999999' 
TABS,ioos:station:wmo:42046:1,2007-12-04T12:00:00Z,27.8903,-94.0367,2.0,101.6255435,8.187972887,-99999.0,'11133222,11111222,99999999' 
TABS,ioos:station:wmo:42046:1,2007-12-04T12:30:00Z,27.8903,-94.0367,2.0,94.64682002,4.073389252,-99999.0,'11133222,11111222,99999999' 
TABS,ioos:station:wmo:42046:1,2007-12-04T13:00:00Z,27.8903,-94.0367,2.0,100.0079564,7.595577661,-99999.0,'11133222,11111222,99999999' 
TABS,ioos:station:wmo:42046:1,2007-12-04T13:30:00Z,27.8903,-94.0367,2.0,96.52371814,8.273572384,-99999.0,'11133222,11111222,99999999' 
TABS,ioos:station:wmo:42046:1,2007-12-04T14:00:00Z,27.8903,-94.0367,2.0,71.52240007,8.487555596,-99999.0,'11133222,11111222,99999999' 
TABS,ioos:station:wmo:42046:1,2007-12-04T14:30:00Z,27.8903,-94.0367,2.0,80.08422787,5.400675884,-99999.0,'11133222,11111222,99999999' 
TABS,ioos:station:wmo:42046:1,2007-12-04T15:00:00Z,27.8903,-94.0367,2.0,79.86057596,6.816458025,-99999.0,'11133222,11111222,99999999' 
TABS,ioos:station:wmo:42046:1,2007-12-04T15:30:00Z,27.8903,-94.0367,2.0,88.28735143,9.034035643,-99999.0,'11133222,11111222,99999999' 
TABS,ioos:station:wmo:42046:1,2007-12-04T16:00:00Z,27.8903,-94.0367,2.0,76.6536494,8.057617514,-99999.0,'11133222,11111222,99999999' 